Weather History for Carmi, IL

Change the Weather History Date:

Tuesday, January 17, 2012

  Actual Average (KEVV) Record (KEVV)
Temperature  
Mean Temperature 47 °F 32 °F  
Max Temperature 64 °F 41 °F 69 °F (1952)
Min Temperature 29 °F 24 °F -21 °F (1977)
Degree Days  
Heating Degree Days 18 33  
Month to date heating degree days 556  
Since 1 July heating degree days 2328  
Cooling Degree Days 0 0  
Month to date cooling degree days 0  
Year to date cooling degree days 0  
Moisture  
Dew Point 43 °F    
Average Humidity 82    
Maximum Humidity 94    
Minimum Humidity 75    
Precipitation  
Precipitation 0.28 in 0.10 in 2.46 in (1969)
Month to date precipitation 1.66  
Year to date precipitation 1.66  
Snow  
Snow 0.00 in 0.10 in 2.70 in (1994)
Month to date snowfall 1.8  
Since 1 July snowfall 5.3  
Snow Depth -    
Sea Level Pressure  
Sea Level Pressure 29.91 in    
Wind  
Wind Speed 21 mph (WSW)    
Max Wind Speed 39 mph    
Max Gust Speed 52 mph    
Visibility 9 miles    
Events Rain , Thunderstorm    
T = Trace of Precipitation, MM = Missing Value Source: NWS Daily Summary

Daily Weather History Graph

Daily Weather History Graph

Search for Another Location

Airport:

Trip Planner

Search our weather history database for the weather conditions in past years. The results will help you decide how hot, cold, wet, or windy it might be!

Date:

Astronomy

Jan. 17, 2012 Rise Set
Actual Time 7:06 AM CST 4:58 PM CST
Civil Twilight 6:38 AM CST 5:27 PM CST
Nautical Twilight 6:05 AM CST 5:59 PM CST
Astronomical Twilight 5:34 AM CST 6:30 PM CST
Moon 1:26 AM CST (1/17) 11:51 AM CST (1/17)
Length of Visible Light 10h 48m
Length of Day
9h 51m
Waning Crescent, 35% of the Moon is Illuminated
Jan 17
Waning Crescent
Jan 23
New
Jan 30
First Quarter
Feb 7
Full
Feb 14
Last Quarter

Hourly Weather History & Observations

Time (CST) Temp. Windchill Dew Point Humidity Pressure Visibility Wind Dir Wind Speed Gust Speed Precip Events Conditions
12:15 AM 58.8 °F - 55.4 °F 88% 29.80 in 10.0 mi South 17.3 mph - N/A Rain , Thunderstorm Light Thunderstorms and Rain
12:35 AM 58.6 °F - 56.3 °F 92% 29.80 in 7.0 mi South 16.1 mph 21.9 mph 0.01 in Rain , Thunderstorm Thunderstorms and Rain
12:55 AM 58.1 °F - 56.3 °F 94% 29.79 in 7.0 mi SSW 11.5 mph - 0.05 in Rain , Thunderstorm Thunderstorms and Rain
1:15 AM 59.4 °F - 56.8 °F 91% 29.78 in 10.0 mi SSW 13.8 mph 20.7 mph 0.05 in Rain , Thunderstorm Light Thunderstorms and Rain
1:35 AM 59.9 °F - 56.5 °F 88% 29.77 in 10.0 mi SSW 13.8 mph 19.6 mph 0.05 in   Overcast
1:55 AM 60.3 °F - 56.3 °F 87% 29.76 in 10.0 mi South 16.1 mph 21.9 mph 0.05 in Thunderstorm Overcast
2:15 AM 60.8 °F - 56.3 °F 85% 29.75 in 10.0 mi South 16.1 mph 24.2 mph N/A   Overcast
2:35 AM 62.1 °F - 56.5 °F 82% 29.74 in 10.0 mi SSW 20.7 mph 28.8 mph N/A   Overcast
2:55 AM 62.4 °F - 56.5 °F 81% 29.74 in 10.0 mi SSW 24.2 mph 31.1 mph N/A   Overcast
3:15 AM 62.2 °F - 56.3 °F 81% 29.73 in 10.0 mi SSW 23.0 mph 34.5 mph N/A   Mostly Cloudy
3:35 AM 61.2 °F - 56.7 °F 85% 29.72 in 10.0 mi South 20.7 mph 29.9 mph N/A Rain Light Rain
3:55 AM 60.8 °F - 56.7 °F 86% 29.71 in 10.0 mi South 18.4 mph 23.0 mph N/A   Mostly Cloudy
4:15 AM 60.6 °F - 56.8 °F 87% 29.70 in 7.0 mi SSW 19.6 mph 23.0 mph N/A Rain Rain
4:35 AM 60.6 °F - 57.2 °F 88% 29.70 in 7.0 mi South 16.1 mph 26.5 mph 0.03 in Rain Light Rain
4:55 AM 60.8 °F - 56.8 °F 87% 29.69 in 10.0 mi SSW 24.2 mph 28.8 mph 0.03 in   Mostly Cloudy
5:35 AM 60.8 °F - 56.7 °F 86% 29.67 in 10.0 mi SSW 21.9 mph 27.6 mph N/A   Clear
5:55 AM 62.4 °F - 57.0 °F 82% 29.68 in 10.0 mi SSW 21.9 mph 32.2 mph N/A   Clear
6:15 AM 62.1 °F - 56.8 °F 83% 29.69 in 10.0 mi SSW 18.4 mph 26.5 mph N/A   Clear
6:35 AM 62.6 °F - 57.2 °F 82% 29.69 in 10.0 mi SSW 20.7 mph 25.3 mph N/A   Clear
6:55 AM 63.1 °F - 57.2 °F 81% 29.68 in 10.0 mi SSW 23.0 mph 33.4 mph N/A   Clear
7:15 AM 63.5 °F - 57.2 °F 80% 29.68 in 10.0 mi SSW 29.9 mph 40.3 mph N/A   Clear
7:35 AM 63.7 °F - 57.4 °F 80% 29.69 in 10.0 mi SSW 26.5 mph 36.8 mph 0.01 in   Clear
7:55 AM 64.4 °F - 57.9 °F 79% 29.69 in 10.0 mi SW 26.5 mph 32.2 mph 0.01 in Thunderstorm Scattered Clouds
8:15 AM 57.0 °F - 52.9 °F 86% 29.76 in 5.0 mi West 39.1 mph 51.8 mph 0.01 in Rain , Thunderstorm Heavy Thunderstorms and Rain
8:35 AM 55.0 °F - 53.4 °F 94% 29.76 in 4.0 mi WSW 16.1 mph 23.0 mph 0.13 in Rain , Thunderstorm Thunderstorms and Rain
8:55 AM 55.4 °F - 53.1 °F 92% 29.78 in 10.0 mi West 17.3 mph - 0.14 in Thunderstorm Overcast
9:35 AM 54.1 °F - 48.0 °F 80% 29.82 in 10.0 mi West 26.5 mph 34.5 mph N/A   Overcast
9:55 AM 52.2 °F - 45.3 °F 78% 29.85 in 10.0 mi West 28.8 mph 36.8 mph N/A   Scattered Clouds
10:15 AM 48.9 °F - 44.2 °F 84% 29.87 in 7.0 mi WNW 27.6 mph 36.8 mph N/A   Mostly Cloudy
10:35 AM 47.1 °F - 41.5 °F 81% 29.89 in 7.0 mi WNW 25.3 mph 36.8 mph N/A   Overcast
10:55 AM 47.3 °F - 41.7 °F 81% 29.90 in 7.0 mi West 31.1 mph 38.0 mph N/A   Mostly Cloudy
11:15 AM 46.6 °F - 39.4 °F 76% 29.92 in 10.0 mi West 32.2 mph 39.1 mph N/A   Scattered Clouds
11:35 AM 43.9 °F 33.4 °F 36.5 °F 75% 29.93 in 10.0 mi WNW 32.2 mph 43.7 mph N/A   Mostly Cloudy
11:55 AM 42.8 °F 32.3 °F 36.0 °F 77% 29.94 in 10.0 mi West 29.9 mph 39.1 mph N/A   Overcast
12:15 PM 41.7 °F 31.2 °F 36.1 °F 81% 29.94 in 7.0 mi WNW 27.6 mph 38.0 mph N/A   Overcast
12:35 PM 40.5 °F 30.0 °F 35.2 °F 82% 29.95 in 7.0 mi West 25.3 mph 33.4 mph N/A   Overcast
12:55 PM 39.4 °F 29.0 °F 34.2 °F 82% 29.97 in 10.0 mi WNW 23.0 mph 38.0 mph N/A   Overcast
1:15 PM 39.0 °F 27.4 °F 33.1 °F 79% 29.98 in 10.0 mi WNW 28.8 mph 34.5 mph N/A   Overcast
1:35 PM 38.5 °F 27.1 °F 32.2 °F 78% 30.00 in 10.0 mi WNW 26.5 mph 34.5 mph N/A   Overcast
1:55 PM 37.4 °F 25.2 °F 32.0 °F 81% 30.02 in 10.0 mi WNW 28.8 mph 36.8 mph N/A   Overcast
2:15 PM 36.3 °F 24.4 °F 31.3 °F 82% 30.03 in 10.0 mi WNW 25.3 mph 32.2 mph N/A   Overcast
2:35 PM 36.0 °F 24.4 °F 29.8 °F 78% 30.05 in 10.0 mi WNW 23.0 mph 28.8 mph N/A   Overcast
2:55 PM 35.8 °F 24.5 °F 29.8 °F 79% 30.06 in 10.0 mi WNW 21.9 mph 32.2 mph N/A   Overcast
3:15 PM 36.7 °F 26.9 °F 30.7 °F 79% 30.07 in 10.0 mi WNW 17.3 mph 24.2 mph N/A   Overcast
3:35 PM 36.1 °F 24.7 °F 30.9 °F 81% 30.08 in 10.0 mi WNW 23.0 mph 31.1 mph N/A   Overcast
3:55 PM 35.2 °F 24.1 °F 30.0 °F 81% 30.10 in 10.0 mi WNW 20.7 mph 33.4 mph N/A   Overcast
4:15 PM 34.3 °F 22.6 °F 28.4 °F 79% 30.11 in 10.0 mi WNW 21.9 mph 31.1 mph N/A   Overcast
4:35 PM 33.8 °F 22.5 °F 27.7 °F 78% 30.12 in 10.0 mi WNW 19.6 mph 28.8 mph N/A   Overcast
4:55 PM 33.8 °F 22.5 °F 28.2 °F 80% 30.13 in 10.0 mi NW 19.6 mph 28.8 mph N/A   Overcast
5:15 PM 33.1 °F 21.2 °F 27.5 °F 80% 30.14 in 10.0 mi WNW 20.7 mph 29.9 mph N/A   Overcast
5:35 PM 32.2 °F 20.0 °F 26.6 °F 80% 30.16 in 10.0 mi WNW 20.7 mph 32.2 mph N/A   Overcast
5:55 PM 32.2 °F 20.0 °F 26.6 °F 80% 30.18 in 10.0 mi NW 20.7 mph 26.5 mph N/A   Overcast
6:15 PM 32.2 °F 19.7 °F 26.8 °F 80% 30.19 in 10.0 mi WNW 21.9 mph 31.1 mph N/A   Overcast
6:35 PM 32.0 °F 19.8 °F 26.4 °F 80% 30.21 in 10.0 mi WNW 20.7 mph 28.8 mph N/A   Overcast
6:55 PM 31.8 °F 19.0 °F 25.3 °F 77% 30.22 in 10.0 mi WNW 23.0 mph 31.1 mph N/A   Overcast
7:15 PM 31.8 °F 19.6 °F 25.2 °F 76% 30.23 in 10.0 mi WNW 20.7 mph 25.3 mph N/A   Overcast
7:35 PM 31.1 °F 19.7 °F 25.0 °F 78% 30.24 in 10.0 mi WNW 17.3 mph 27.6 mph N/A   Overcast
7:55 PM 30.7 °F 19.2 °F 24.6 °F 78% 30.25 in 10.0 mi WNW 17.3 mph 23.0 mph N/A   Overcast
8:35 PM 29.7 °F 19.1 °F 23.4 °F 77% 30.26 in 10.0 mi NW 13.8 mph - N/A   Scattered Clouds
8:55 PM 29.3 °F 20.8 °F 23.2 °F 78% 30.27 in 10.0 mi NW 9.2 mph - N/A   Scattered Clouds
9:15 PM 29.8 °F 20.9 °F 23.9 °F 79% 30.28 in 10.0 mi WNW 10.4 mph - N/A   Mostly Cloudy
9:35 PM 29.3 °F 17.7 °F 23.0 °F 77% 30.28 in 10.0 mi WNW 16.1 mph 25.3 mph N/A   Overcast
9:55 PM 29.3 °F 17.0 °F 22.8 °F 77% 30.29 in 10.0 mi WNW 18.4 mph 23.0 mph N/A   Overcast
10:15 PM 29.1 °F 17.1 °F 23.0 °F 78% 30.30 in 10.0 mi NW 17.3 mph 23.0 mph N/A   Overcast
10:35 PM 28.4 °F 16.6 °F 21.6 °F 76% 30.30 in 10.0 mi NNW 16.1 mph - N/A   Overcast
10:55 PM 28.4 °F 18.5 °F 21.6 °F 76% 30.30 in 10.0 mi NNW 11.5 mph 17.3 mph N/A   Overcast
11:15 PM 27.9 °F 15.5 °F 21.2 °F 76% 30.31 in 10.0 mi NW 17.3 mph - N/A   Overcast
11:35 PM 27.3 °F 15.2 °F 20.7 °F 76% 30.31 in 10.0 mi NW 16.1 mph - N/A   Overcast
11:55 PM 27.5 °F 17.4 °F 20.7 °F 75% 30.31 in 10.0 mi NW 11.5 mph - N/A   Overcast